Change the Weather History Date:

Monday, July 1, 2013

  Actual Average Record
Temperature  
Mean Temperature 78 °F -  
Max Temperature 84 °F 87 °F 102 °F (1998)
Min Temperature 71 °F 73 °F 71 °F (2008)
Cooling Degree Days 12    
Growing Degree Days 28 (Base 50)    
Moisture  
Dew Point 72 °F    
Average Humidity 93    
Maximum Humidity 100    
Minimum Humidity 69    
Precipitation  
Precipitation 1.31 in - - ()
Sea Level Pressure  
Sea Level Pressure 29.93 in    
Wind  
Wind Speed 9 mph (South)    
Max Wind Speed 23 mph    
Max Gust Speed 33 mph    
Visibility 7 miles    
Events Fog , Rain , Thunderstorm    
Averages and records for this station are not official NWS values.
T = Trace of Precipitation, MM = Missing Value Source: NWS Daily Summary

Daily Weather History Graph

Daily Weather History Graph

Search for Another Location

Airport or City:

Trip Planner

Search our weather history database for the weather conditions in past years. The results will help you decide how hot, cold, wet, or windy it might be!

Date:

Astronomy

Jul. 01, 2013 Rise Set
Actual Time 6:27 AM EDT 8:31 PM EDT
Civil Twilight 5:59 AM EDT 8:59 PM EDT
Nautical Twilight 5:26 AM EDT 9:32 PM EDT
Astronomical Twilight 4:50 AM EDT 10:08 PM EDT
Moon 1:40 AM EDT 2:59 PM EDT
Length of Visible Light 14h 59m
Length of Day
14h 04m
Waning Crescent, 35% of the Moon is Illuminated
Jul 1
Waning Crescent
Jul 8
New
Jul 15
First Quarter
Jul 22
Full
Jul 29
Last Quarter

Hourly Weather History & Observations

Time (EDT) Temp. Heat Index Dew Point Humidity Pressure Visibility Wind Dir Wind Speed Gust Speed Precip Events Conditions
12:52 AM 73.9 °F - 71.1 °F 91% 29.87 in 10.0 mi South 9.2 mph - N/A   Clear
1:52 AM 73.0 °F - 71.1 °F 93% 29.87 in 10.0 mi South 6.9 mph - N/A   Clear
2:52 AM 73.0 °F - 71.1 °F 93% 29.86 in 10.0 mi South 9.2 mph - N/A   Partly Cloudy
3:37 AM 73.4 °F - 71.6 °F 94% 29.85 in 10.0 mi South 9.2 mph - N/A   Mostly Cloudy
3:52 AM 73.0 °F - 72.0 °F 96% 29.85 in 10.0 mi South 10.4 mph - N/A   Mostly Cloudy
4:52 AM 73.9 °F - 72.0 °F 93% 29.84 in 10.0 mi SSW 10.4 mph - N/A   Partly Cloudy
5:32 AM 73.4 °F - 71.6 °F 94% 29.86 in 10.0 mi South 6.9 mph - N/A   Partly Cloudy
5:52 AM 73.0 °F - 72.0 °F 96% 29.86 in 10.0 mi South 6.9 mph - N/A   Partly Cloudy
6:03 AM 73.4 °F - 71.6 °F 94% 29.86 in 10.0 mi South 5.8 mph - N/A   Mostly Cloudy
6:52 AM 73.0 °F - 72.0 °F 96% 29.88 in 10.0 mi South 4.6 mph - N/A   Mostly Cloudy
7:52 AM 75.0 °F - 73.0 °F 94% 29.90 in 10.0 mi South 5.8 mph - N/A   Mostly Cloudy
8:52 AM 77.0 °F - 73.9 °F 90% 29.91 in 10.0 mi South 10.4 mph - N/A   Mostly Cloudy
9:52 AM 81.0 °F 86.2 °F 73.9 °F 79% 29.91 in 10.0 mi South 10.4 mph - N/A   Mostly Cloudy
10:52 AM 82.0 °F 87.4 °F 73.0 °F 74% 29.92 in 10.0 mi SSW 12.7 mph - N/A   Mostly Cloudy
11:52 AM 84.0 °F 90.2 °F 73.0 °F 69% 29.92 in 10.0 mi SSW 11.5 mph - N/A   Mostly Cloudy
12:52 PM 84.0 °F 91.2 °F 73.9 °F 72% 29.93 in 10.0 mi SSW 13.8 mph - N/A   Overcast
1:32 PM 84.2 °F 90.9 °F 73.4 °F 70% 29.91 in 10.0 mi SSW 8.1 mph - N/A Thunderstorm Overcast
1:45 PM 80.6 °F 85.4 °F 73.4 °F 79% 29.93 in 0.5 mi SW 10.4 mph 17.3 mph 0.14 in Rain , Thunderstorm Heavy Thunderstorms and Rain
1:52 PM 75.9 °F - 73.9 °F 94% 29.93 in 3.0 mi Variable 3.5 mph 17.3 mph 0.21 in Rain , Thunderstorm Thunderstorms and Rain
2:09 PM 73.4 °F - 73.4 °F 100% 29.95 in 0.2 mi South 23.0 mph 33.4 mph 0.10 in Fog , Rain , Thunderstorm Heavy Thunderstorms and Rain
2:18 PM 71.6 °F - 71.6 °F 100% 29.95 in 0.5 mi South 13.8 mph 28.8 mph 0.38 in Fog , Rain , Thunderstorm Heavy Thunderstorms and Rain
2:40 PM 71.6 °F - 71.6 °F 100% 29.95 in 2.0 mi SSW 9.2 mph - 0.45 in Rain , Thunderstorm Thunderstorms and Rain
2:52 PM 72.0 °F - 72.0 °F 100% 29.96 in 2.0 mi SSW 9.2 mph - 0.48 in Rain , Thunderstorm Rain
3:28 PM 73.4 °F - 71.6 °F 94% 29.94 in 7.0 mi SSW 8.1 mph - 0.16 in Rain Light Rain
3:52 PM 73.0 °F - 72.0 °F 96% 29.95 in 7.0 mi South 9.2 mph - 0.16 in Rain Light Rain
4:35 PM 73.4 °F - 71.6 °F 94% 29.95 in 1.0 mi SSW 12.7 mph - 0.02 in Rain Rain
4:50 PM 71.6 °F - 71.6 °F 100% 29.95 in 2.0 mi SSW 13.8 mph - 0.09 in Rain Rain
4:52 PM 72.0 °F - 71.1 °F 97% 29.95 in 2.0 mi SSW 11.5 mph - 0.09 in Rain Rain
5:32 PM 71.6 °F - 71.6 °F 100% 29.96 in 3.0 mi South 8.1 mph - 0.05 in Rain Rain
5:52 PM 72.0 °F - 71.1 °F 97% 29.96 in 5.0 mi SSW 9.2 mph - 0.08 in Rain Rain
6:52 PM 72.0 °F - 70.0 °F 93% 29.96 in 10.0 mi South 6.9 mph - 0.11 in   Overcast
7:24 PM 71.6 °F - 71.6 °F 100% 29.99 in 5.0 mi South 6.9 mph - 0.04 in Rain Rain
7:52 PM 72.0 °F - 72.0 °F 100% 29.99 in 3.0 mi SSW 6.9 mph - 0.11 in Rain Rain
8:52 PM 72.0 °F - 72.0 °F 100% 29.98 in 5.0 mi Variable 3.5 mph - 0.07 in Rain Light Rain
9:31 PM 71.6 °F - 71.6 °F 100% 30.01 in 10.0 mi South 6.9 mph - 0.00 in   Overcast
9:52 PM 72.0 °F - 72.0 °F 100% 30.01 in 10.0 mi South 5.8 mph - 0.00 in   Overcast
10:52 PM 73.0 °F - 72.0 °F 96% 30.03 in 10.0 mi South 5.8 mph - N/A   Overcast
11:44 PM 73.4 °F - 73.4 °F 100% 30.03 in 10.0 mi SSE 10.4 mph - 0.00 in Rain Light Rain
11:52 PM 73.9 °F - 73.0 °F 97% 30.03 in 10.0 mi SSE 9.2 mph - 0.00 in Rain Light Rain